Weather History for Shaw AFB, SC

Change the Weather History Date:

Friday, February 8, 2013

  Actual Average Record
Temperature  
Mean Temperature 52 °F -  
Max Temperature 62 °F 56 °F 75 °F (2009)
Min Temperature 43 °F 34 °F 28 °F (2004)
Degree Days  
Heating Degree Days 12    
Growing Degree Days 2 (Base 50)    
Moisture  
Dew Point 41 °F    
Average Humidity 75    
Maximum Humidity 93    
Minimum Humidity 45    
Precipitation  
Precipitation 0.06 in - - ()
Sea Level Pressure  
Sea Level Pressure 29.89 in    
Wind  
Wind Speed 13 mph (NW)    
Max Wind Speed 18 mph    
Max Gust Speed 25 mph    
Visibility 9 miles    
Events Rain    
Averages and records for this station are not official NWS values.
T = Trace of Precipitation, MM = Missing Value Source: NWS Daily Summary

Daily Weather History Graph

Daily Weather History Graph

Search for Another Location

Airport:

Trip Planner

Search our weather history database for the weather conditions in past years. The results will help you decide how hot, cold, wet, or windy it might be!

Date:

Astronomy

Feb. 08, 2013 Rise Set
Actual Time 7:13 AM EST 5:59 PM EST
Civil Twilight 6:47 AM EST 6:25 PM EST
Nautical Twilight 6:17 AM EST 6:55 PM EST
Astronomical Twilight 5:48 AM EST 7:24 PM EST
Moon 5:38 AM EST (2/8) 4:32 PM EST (2/8)
Length of Visible Light 11h 38m
Length of Day
10h 46m
Waning Crescent, 3% of the Moon is Illuminated
Feb 8
Waning Crescent
Feb 10
New
Feb 17
First Quarter
Feb 25
Full
Mar 4
Last Quarter

Hourly Weather History & Observations

Time (EST) Temp. Windchill Dew Point Humidity Pressure Visibility Wind Dir Wind Speed Gust Speed Precip Events Conditions
12:01 AM 46.4 °F 39.5 °F 42.8 °F 87% 29.81 in 4.0 mi NE 17.3 mph 23.0 mph N/A Rain Heavy Rain
12:03 AM 46.4 °F 39.2 °F 44.6 °F 93% 29.81 in 4.0 mi NE 18.4 mph - N/A Rain Heavy Rain
12:05 AM 46.4 °F 39.2 °F 44.6 °F 93% 29.80 in 4.0 mi ENE 18.4 mph - N/A Rain Heavy Rain
12:08 AM 46.4 °F 39.8 °F 44.6 °F 93% 29.81 in 5.0 mi NE 16.1 mph - N/A Rain Rain
12:10 AM 46.4 °F 39.5 °F 44.6 °F 93% 29.81 in 6.0 mi NE 17.3 mph - N/A Rain Rain
12:19 AM 46.4 °F 39.8 °F 44.6 °F 93% 29.82 in 10.0 mi NNE 16.1 mph - N/A Rain Light Rain
12:42 AM 46.4 °F 40.1 °F 44.6 °F 93% 29.81 in 10.0 mi North 15.0 mph 20.7 mph N/A   Overcast
12:55 AM 46.6 °F - 43.0 °F 87% 29.81 in 10.0 mi North 16.1 mph 23.0 mph 0.05 in   Overcast
1:45 AM 46.4 °F 40.1 °F 42.8 °F 87% 29.82 in 10.0 mi North 15.0 mph - N/A Rain Light Rain
1:55 AM 46.0 °F 39.9 °F 42.1 °F 86% 29.81 in 10.0 mi North 13.8 mph 20.7 mph 0.01 in Rain Light Rain
1:59 AM 46.4 °F 39.5 °F 42.8 °F 87% 29.81 in 10.0 mi North 17.3 mph - N/A   Overcast
2:55 AM 46.6 °F - 41.7 °F 83% 29.81 in 10.0 mi North 15.0 mph 25.3 mph 0.00 in   Overcast
3:04 AM 46.4 °F 39.8 °F 41.0 °F 81% 29.81 in 10.0 mi North 16.1 mph 23.0 mph N/A   Overcast
3:55 AM 46.6 °F - 41.2 °F 81% 29.84 in 10.0 mi NNW 10.4 mph - N/A   Overcast
4:30 AM 46.4 °F 41.5 °F 41.0 °F 81% 29.84 in 10.0 mi NNW 10.4 mph - N/A   Overcast
4:39 AM 46.4 °F 41.9 °F 41.0 °F 81% 29.85 in 10.0 mi NW 9.2 mph - N/A   Mostly Cloudy
4:40 AM 46.4 °F 41.9 °F 41.0 °F 81% 29.85 in 10.0 mi NNW 9.2 mph - N/A   Mostly Cloudy
4:43 AM 46.4 °F 42.4 °F 41.0 °F 81% 29.85 in 10.0 mi NNW 8.1 mph - N/A   Mostly Cloudy
4:48 AM 46.4 °F 42.4 °F 41.0 °F 81% 29.85 in 10.0 mi NW 8.1 mph - N/A   Mostly Cloudy
4:50 AM 46.4 °F 41.9 °F 41.0 °F 81% 29.85 in 10.0 mi NW 9.2 mph - N/A   Mostly Cloudy
4:55 AM 46.2 °F 41.7 °F 40.5 °F 80% 29.86 in 10.0 mi NW 9.2 mph - N/A   Mostly Cloudy
5:55 AM 45.0 °F 41.2 °F 39.9 °F 82% 29.86 in 10.0 mi NW 6.9 mph - N/A   Partly Cloudy
6:55 AM 44.1 °F 41.5 °F 39.6 °F 84% 29.87 in 10.0 mi NW 4.6 mph - N/A   Clear
7:55 AM 43.7 °F 39.7 °F 39.7 °F 86% 29.91 in 10.0 mi WNW 6.9 mph - N/A   Clear
8:08 AM 44.6 °F 39.7 °F 39.2 °F 81% 29.92 in 10.0 mi WNW 9.2 mph - N/A   Partly Cloudy
8:25 AM 44.6 °F 39.2 °F 39.2 °F 81% 29.91 in 10.0 mi NW 10.4 mph - N/A   Mostly Cloudy
8:46 AM 44.6 °F 38.8 °F 39.2 °F 81% 29.92 in 10.0 mi WNW 11.5 mph - N/A   Mostly Cloudy
8:55 AM 44.1 °F 39.0 °F 39.0 °F 82% 29.94 in 10.0 mi NW 9.2 mph - N/A   Overcast
9:55 AM 44.4 °F 38.2 °F 38.8 °F 81% 29.97 in 10.0 mi WNW 12.7 mph - N/A   Overcast
10:51 AM 48.2 °F - 39.2 °F 71% 29.95 in 10.0 mi WNW 10.4 mph - N/A   Overcast
10:55 AM 47.3 °F - 39.7 °F 75% 29.96 in 10.0 mi WNW 10.4 mph - N/A   Overcast
11:53 AM 50.0 °F - 39.2 °F 66% 29.93 in 10.0 mi NW 9.2 mph - N/A   Mostly Cloudy
11:55 AM 49.6 °F - 39.9 °F 69% 29.94 in 10.0 mi NNW 9.2 mph - N/A   Mostly Cloudy
12:06 PM 50.0 °F - 41.0 °F 71% 29.94 in 10.0 mi NW 6.9 mph - N/A   Mostly Cloudy
12:55 PM 53.8 °F - 40.5 °F 61% 29.92 in 10.0 mi WSW 8.1 mph - N/A   Clear
1:55 PM 59.2 °F - 41.4 °F 52% 29.90 in 10.0 mi West 5.8 mph - N/A   Clear
2:55 PM 61.5 °F - 41.4 °F 48% 29.89 in 10.0 mi West 12.7 mph 19.6 mph N/A   Clear
3:55 PM 62.2 °F - 41.5 °F 47% 29.88 in 10.0 mi West 13.8 mph - N/A   Scattered Clouds
4:55 PM 61.7 °F - 42.4 °F 49% 29.90 in 10.0 mi West 12.7 mph - N/A   Mostly Cloudy
5:55 PM 59.7 °F - 42.8 °F 54% 29.93 in 10.0 mi West 11.5 mph - N/A   Overcast
6:55 PM 56.8 °F - 43.3 °F 61% 29.95 in 10.0 mi West 5.8 mph - N/A   Overcast
7:55 PM 57.0 °F - 43.7 °F 61% 29.97 in 10.0 mi West 6.9 mph - N/A   Mostly Cloudy
8:55 PM 54.7 °F - 40.3 °F 58% 30.00 in 10.0 mi WNW 8.1 mph - N/A   Partly Cloudy
9:55 PM 52.2 °F - 34.2 °F 50% 30.02 in 10.0 mi NW 8.1 mph - N/A   Clear
10:55 PM 49.6 °F - 28.9 °F 45% 30.05 in 10.0 mi NW 6.9 mph - N/A   Clear
11:55 PM 47.5 °F - 28.2 °F 47% 30.08 in 10.0 mi North 6.9 mph - N/A   Clear